Regional Weather Roundup
Issued by NWS Cleveland, OH

Home | Current Version | Previous Version | Text Only | Print | Product List | Glossary On
Versions: 1 2 3 4 5 6 7 8 9 10 11 12 13 14 15 16 17 18 19 20 21 22 23 24 25 26 27 28 29 30 31 32 33 34 35 36 37 38 39 40 41 42 43 44 45 46 47 48 49 50
000
ASUS41 KCLE 240012
RWRCLE
OHIO REGIONAL WEATHER ROUNDUP
NATIONAL WEATHER SERVICE WILMINGTON, OH
800 PM EDT MON OCT 23 2017

NOTE: "FAIR" INDICATES FEW OR NO CLOUDS BELOW 12,000 FEET WITH NO
SIGNIFICANT WEATHER AND/OR OBSTRUCTIONS TO VISIBILITY.

OHZ001>008-015>018-024>027-034-035-043-044-240100-
   NORTHWEST OHIO

CITY           SKY/WX    TMP DP  RH WIND       PRES   REMARKS
DEFIANCE       LGT RAIN  55  52  89 SW12G22   29.52R
FINDLAY        LGT RAIN  60  55  83 S18       29.55R
TOLEDO EXPRESS LGT RAIN  60  58  92 SW21G37   29.49F
TOLEDO EXEC    CLOUDY    61  57  87 S18G28    29.51F
LIMA           LGT RAIN  56  55  97 SW17G29   29.59R
$$

OHZ009>014-019>023-028>033-038-089-240100-
   NORTHEAST OHIO

CITY           SKY/WX    TMP DP  RH WIND       PRES   REMARKS
CLE-HOPKINS    LGT RAIN  60  56  86 S15       29.61F
CLE-LAKEFRONT  LGT RAIN  60  56  86 SE15G23   29.58F
CUY CO. ARPT   LGT RAIN  61  57  88 S14G24    29.62F
LORAIN-ELYRIA  CLOUDY    59  52  77 S14       29.58F
ASHTABULA      CLOUDY    61  59  93 S14G24    29.67R
AKRON-CANTON   LGT RAIN  58  54  86 SE15      29.64F
WOOSTER        CLOUDY    57  55  93 S8        29.64F
MANSFIELD      CLOUDY    57  56  96 S13       29.63R
YOUNGSTOWN     LGT RAIN  57  55  93 S10       29.70F
$$

OHZ042-051>053-060>062-070>072-077>081-240100-
  SOUTHWEST OHIO

CITY           SKY/WX    TMP DP  RH WIND       PRES   REMARKS
CINC-COVINGTON CLOUDY    55  55 100 SW9       29.67R
CINC-LUNKEN    CLOUDY    57  54  89 SW10      29.68R
HAMILTON       CLOUDY    57  55  93 SW8G17    29.66S
DAYTON         LGT RAIN  57  57 100 SW7       29.63S
WRIGHT-PAT AFB LGT RAIN  59  59 100 S14       29.61F
DAYTON GENERAL LGT RAIN  58  55  90 W15G25    29.62F FOG
WILMINGTON     LGT RAIN  57  57 100 S10       29.64F FOG
$$

OHZ036-037-039>041-045>050-054>059-063>069-073>076-082>088-240100-
  CENTRAL AND SOUTHEAST OHIO

CITY           SKY/WX    TMP DP  RH WIND       PRES   REMARKS
COLUMBUS       CLOUDY    59  56  89 S9        29.65R
OSU AIRPORT    CLOUDY    59  57  93 S13G20    29.64R
BOLTON FIELD   CLOUDY    57  56  94 S12       29.65R
RICKENBACK AFB CLOUDY    56  56  98 S9        29.65F
NEWARK         MOCLDY    58  55  90 S6        29.66R
MARION         LGT RAIN  58  54  86 S18       29.63R FOG
LANCASTER      FAIR      57  56  96 S8        29.67S
ZANESVILLE     FAIR      57  54  89 SE7       29.68R
NEW PHILLY     LGT RAIN  58  55  90 SE13      29.69F
$$



USA.gov is the U.S. government's official web portal to all federal, state and local government web resources and services.